Wetbulb
71.32 72.01 71.92 72.50 73.15 73.43 73.37 73.01 73.39 73.18 73.57 73.37 73.36 72.65 72.14 72.19 72.34 72.98 72.49 74.30 75.99 75.73 76.04 76.06 75.31 74.53 74.46 75.30 75.46 74.92 74.80 73.40 74.17 74.66 73.74 73.68 74.13 73.80 73.17 72.76 72.72 73.75 73.11
71.38 71.49 71.49 71.83 72.46 72.86 72.89 72.82 72.84 72.74 72.80 73.00 72.63 72.48 72.72 73.18 73.11 72.65 73.20 73.05 76.65 75.55 76.00 76.57 76.31 75.33 75.14 75.69 75.46 74.88 75.25 74.74 74.55 75.30 74.95 74.68 74.30 74.13 74.37 73.56 73.36 72.93 73.27
71.69 71.65 71.54 71.20 72.01 72.70 72.81 72.33 72.32 72.25 71.88 72.14 71.77 72.12 73.06 72.71 72.98 73.38 74.12 73.51 74.03 76.43 75.87 76.07 75.47 75.77 75.81 75.75 76.21 75.87 75.60 75.40 75.42 75.00 75.35 75.17 74.95 74.50 74.58 74.55 74.58 74.73 74.23
72.17 71.50 71.36 71.40 72.14 71.96 72.33 72.15 71.58 70.89 71.27 70.83 71.23 71.65 72.59 71.80 72.44 72.89 73.12 73.27 73.63 73.33 75.56 75.90 75.22 75.35 75.77 76.36 76.55 76.15 76.31 75.88 75.70 75.13 75.13 75.45 75.52 74.52 74.49 74.89 75.07 74.92 74.47
72.67 71.61 71.40 71.56 72.14 71.57 71.59 71.67 71.20 71.31 70.63 70.67 70.85 71.58 71.18 71.60 72.18 72.76 72.57 72.71 73.26 73.09 73.49 74.77 75.19 75.10 76.25 76.39 76.27 76.22 76.47 75.85 75.45 75.58 75.28 75.18 75.25 74.87 74.14 74.44 74.52 74.61 74.41
72.09 71.93 71.54 71.42 71.05 70.46 70.58 71.20 70.77 70.70 70.47 70.05 70.43 71.39 71.20 71.26 71.21 71.60 71.89 72.75 73.68 73.53 74.37 73.92 74.60 74.77 75.52 75.69 75.32 75.20 75.57 75.11 74.72 74.73 75.38 75.03 75.00 74.65 74.24 74.14 74.36 74.18 73.82
70.63 71.69 71.00 70.61 70.93 69.63 70.07 70.07 69.58 68.79 69.35 69.62 68.59 68.49 69.09 69.55 69.86 70.89 71.21 71.27 71.92 72.78 73.62 74.09 73.94 73.69 73.51 73.92 74.63 75.04 75.50 75.02 75.30 74.63 74.38 74.03 74.50 74.15 74.17 73.94 73.66 73.41 73.19
71.13 70.89 70.99 70.37 70.64 69.18 67.87 68.81 68.81 68.23 69.08 68.54 67.08 65.91 65.25 66.22 67.85 69.48 69.99 70.66 71.09 72.06 72.49 73.14 72.94 72.73 73.05 73.05 73.07 72.99 74.01 74.28 75.37 74.94 74.35 73.68 73.46 73.70 73.35 73.16 72.91 72.78 72.97
71.49 71.07 70.50 70.68 70.17 69.67 68.48 67.53 67.89 68.27 67.12 67.64 67.60 66.52 62.64 62.86 64.33 67.46 67.04 69.00 70.51 70.81 71.94 72.17 72.23 72.75 72.91 73.20 73.14 73.26 73.57 73.25 74.02 74.55 74.85 74.97 73.60 73.28 73.03 72.83 72.78 72.47 72.32
71.12 71.37 70.95 70.95 70.37 69.79 69.11 68.34 67.87 67.82 68.18 66.85 67.50 68.29 67.35 66.58 64.24 63.51 66.97 66.57 69.28 69.52 69.87 70.12 70.04 70.76 71.89 72.84 72.52 72.26 72.09 71.96 72.70 73.80 74.59 74.94 74.91 73.54 73.18 72.96 72.96 72.60 72.10
70.78 71.12 70.52 70.77 70.53 69.97 69.87 68.84 68.59 67.41 68.34 67.17 67.22 67.15 67.10 66.99 65.63 64.22 63.26 65.14 66.19 68.95 68.34 67.76 68.42 68.94 71.72 71.93 71.14 71.35 72.06 72.52 72.04 72.40 73.19 74.13 74.26 74.23 73.91 73.58 73.31 72.46 72.09
69.55 70.24 70.16 69.71 70.26 69.81 69.44 68.88 68.79 68.11 67.43 67.23 67.69 67.93 67.64 66.06 65.20 65.07 63.45 64.17 64.63 66.38 67.73 66.87 66.61 68.94 71.09 71.39 71.15 71.53 71.70 71.47 71.03 71.14 71.71 72.70 73.54 73.96 73.98 73.11 72.85 72.28 72.16
68.75 69.49 69.91 69.12 69.54 69.49 70.05 69.15 69.08 68.41 67.71 67.01 67.19 66.78 67.19 67.48 68.38 66.96 65.84 65.39 65.13 65.59 65.46 66.65 66.04 68.82 70.19 70.62 70.75 70.73 71.13 70.40 69.79 69.19 69.81 70.71 71.47 72.05 72.43 72.44 72.37 72.12 72.05
69.39 69.77 69.84 68.74 69.12 69.39 69.82 69.56 68.86 68.97 68.99 68.81 67.82 67.34 67.68 68.20 67.91 67.26 66.04 64.96 63.54 64.15 64.49 65.18 66.21 68.20 69.99 69.82 69.73 69.84 70.19 69.65 68.67 67.71 67.84 68.32 69.41 70.29 70.86 71.31 71.40 71.80 71.74
68.81 69.39 69.62 69.09 68.44 68.67 68.97 68.16 67.73 67.37 68.20 68.54 68.27 68.34 68.38 68.14 68.43 68.18 67.32 66.67 65.27 61.03 61.77 63.91 65.06 67.64 68.95 69.34 68.91 68.49 68.80 68.60 68.26 67.08 66.31 66.68 67.31 68.04 68.69 69.01 69.03 69.12 69.27
69.16 69.56 69.22 69.11 68.26 67.61 66.90 66.48 66.92 67.35 67.22 68.00 68.25 67.66 68.29 68.99 68.09 68.99 67.52 66.94 66.35 64.75 62.55 63.77 63.98 65.88 67.48 66.56 68.28 67.12 68.25 67.64 67.08 66.52 65.82 65.50 66.07 66.70 67.06 67.28 67.22 67.28 67.22
69.02 68.69 69.22 69.13 68.46 67.85 68.46 68.02 67.89 68.13 67.46 67.44 67.10 66.41 66.41 66.72 67.62 67.71 67.95 67.41 66.57 66.03 63.72 63.02 64.02 65.34 66.35 66.13 65.50 65.23 65.50 66.14 66.37 65.87 65.29 64.93 64.76 65.23 65.48 65.75 65.77 65.87 66.05
68.82 68.57 68.62 68.90 68.92 69.15 68.98 68.54 68.07 68.71 67.48 66.90 66.90 66.61 66.47 67.81 67.71 68.05 66.37 66.33 66.28 65.76 64.11 62.31 62.98 63.40 64.42 64.95 63.45 62.24 63.28 64.39 64.89 65.07 64.60 63.94 63.23 62.68 62.66 62.80 62.83 62.93 62.68
68.15 67.97 68.23 68.22 68.31 68.56 68.70 68.53 68.17 67.71 67.67 67.38 67.36 67.08 67.36 67.25 67.17 67.22 66.86 66.54 66.30 66.67 65.36 63.61 61.73 62.86 63.56 62.79 61.23 60.98 60.94 61.81 63.48 64.59 63.85 63.35 62.91 62.24 61.43 60.96 60.45 59.22 58.60
68.24 68.09 67.86 67.78 68.12 68.30 68.65 68.34 68.18 67.54 67.49 66.83 67.06 66.72 66.71 67.33 67.85 67.45 67.04 66.99 66.26 65.59 64.74 63.36 62.29 62.48 63.00 62.79 62.15 59.33 57.97 59.56 61.08 62.72 63.01 62.85 62.69 62.91 62.47 61.23 60.80 59.63 57.08
67.71 67.64 67.50 67.80 67.45 67.41 67.17 67.76 67.17 67.29 66.27 65.57 66.12 66.83 66.51 67.04 66.03 66.39 67.17 67.21 66.52 65.00 63.98 62.49 61.05 61.05 60.89 60.89 60.56 60.64 58.85 58.83 59.18 59.98 60.77 61.26 61.56 61.91 62.78 61.89 63.06 61.80 58.07
67.66 67.48 67.17 66.76 67.01 66.88 62.74 62.62 65.89 66.49 65.94 64.98 64.97 66.25 66.81 66.40 65.52 63.64 64.32 64.82 66.41 65.23 63.15 62.00 60.91 61.02 62.02 62.45 61.19 60.76 58.65 58.13 58.08 59.88 59.82 59.56 60.44 60.45 60.76 61.35 61.36 60.33 57.76
66.61 66.90 67.21 66.79 66.68 67.12 60.89 60.09 62.29 65.85 65.06 65.07 65.63 65.81 65.36 65.64 64.26 65.75 63.38 63.51 63.54 62.65 62.94 64.13 61.82 61.97 62.38 63.85 62.69 60.90 60.18 59.69 59.91 58.44 58.07 57.95 58.85 58.41 59.58 60.33 58.76 58.98 57.48
65.58 66.08 66.57 65.79 66.92 66.90 59.98 57.86 60.57 65.62 64.45 64.50 64.56 65.30 65.59 65.23 64.46 65.27 66.43 65.90 65.03 64.63 64.21 63.62 63.46 63.89 64.30 63.27 63.15 62.83 61.92 60.85 58.86 58.16 59.60 55.44 57.74 58.29 59.06 58.97 58.61 58.11 57.06
65.44 65.80 65.03 64.07 64.57 65.63 57.90 56.16 59.38 62.77 62.31 63.58 64.41 64.76 65.10 64.83 60.26 59.29 65.19 65.49 65.09 64.87 59.67 60.01 59.60 59.07 58.91 59.52 62.18 62.23 59.67 58.59 57.79 57.78 58.65 57.60 58.00 56.88 58.79 58.27 59.45 57.91 56.22
64.02 63.40 63.50 62.24 59.66 63.72 56.38 53.99 58.38 62.34 61.40 62.46 63.62 64.32 60.18 63.75 56.22 55.53 65.01 64.31 63.14 63.11 64.30 63.86 63.73 61.03 60.13 60.38 59.25 64.65 62.10 59.85 59.66 58.47 59.17 57.82 58.77 57.65 58.90 58.85 57.43 58.10 57.60
MSLP
1015.68 1015.76 1015.96 1016.16 1016.39 1016.64 1016.85 1017.07 1017.27 1017.45 1017.62 1017.76 1017.89 1017.92 1017.89 1017.85 1017.76 1017.77 1017.73 1017.67 1017.73 1017.97 1018.22 1018.42 1018.62 1018.84 1019.08 1019.24 1019.39 1019.55 1019.69 1019.80 1019.98 1020.04 1020.21 1020.32 1020.45 1020.57 1020.64 1020.78 1020.91 1021.02 1021.21
1015.53 1015.70 1015.85 1016.01 1016.17 1016.38 1016.69 1016.91 1017.16 1017.34 1017.43 1017.57 1017.63 1017.69 1017.68 1017.75 1017.63 1017.51 1017.42 1017.39 1017.40 1017.61 1017.92 1018.01 1018.23 1018.52 1018.67 1018.84 1019.03 1019.24 1019.33 1019.50 1019.66 1019.76 1019.96 1020.12 1020.25 1020.31 1020.36 1020.54 1020.67 1020.78 1020.82
1015.27 1015.52 1015.78 1016.00 1015.97 1016.15 1016.42 1016.78 1017.05 1017.25 1017.34 1017.37 1017.49 1017.37 1017.40 1017.42 1017.41 1017.38 1017.30 1017.22 1017.19 1017.28 1017.54 1017.77 1018.03 1018.21 1018.23 1018.40 1018.56 1018.76 1018.94 1019.11 1019.22 1019.34 1019.46 1019.70 1019.85 1019.98 1020.10 1020.17 1020.28 1020.38 1020.54
1014.86 1015.20 1015.53 1015.75 1015.85 1016.11 1016.29 1016.49 1016.86 1017.18 1017.26 1017.35 1017.28 1017.23 1017.29 1017.30 1017.23 1017.21 1017.41 1017.30 1017.13 1017.02 1017.17 1017.33 1017.63 1017.73 1017.85 1017.96 1018.11 1018.17 1018.40 1018.61 1018.75 1018.88 1018.94 1019.11 1019.35 1019.58 1019.73 1019.71 1019.81 1019.99 1020.20
1014.36 1014.63 1014.90 1015.15 1015.46 1015.85 1016.12 1016.29 1016.63 1016.86 1016.99 1017.02 1017.02 1016.98 1017.10 1016.99 1016.86 1016.82 1016.91 1017.01 1017.01 1016.95 1016.89 1016.93 1016.99 1017.15 1017.20 1017.41 1017.58 1017.90 1018.01 1018.12 1018.14 1018.34 1018.52 1018.63 1018.79 1018.97 1019.17 1019.25 1019.32 1019.50 1019.73
1013.87 1014.20 1014.43 1014.74 1015.10 1015.59 1015.84 1015.97 1016.35 1016.48 1016.59 1016.72 1016.92 1016.79 1016.87 1016.89 1016.71 1016.62 1016.47 1016.39 1016.49 1016.60 1016.64 1016.70 1016.71 1016.70 1016.65 1016.82 1017.03 1017.36 1017.54 1017.62 1017.65 1017.80 1018.00 1018.11 1018.21 1018.40 1018.65 1018.78 1018.83 1019.06 1019.29
1013.73 1013.78 1014.05 1014.32 1014.66 1015.17 1015.37 1015.75 1016.07 1016.25 1016.46 1016.68 1016.88 1016.93 1016.76 1016.62 1016.64 1016.48 1016.35 1016.31 1016.25 1016.26 1016.35 1016.41 1016.45 1016.52 1016.48 1016.51 1016.53 1016.57 1016.78 1017.03 1017.08 1017.23 1017.39 1017.47 1017.63 1017.87 1018.08 1018.22 1018.35 1018.54 1018.80
1013.39 1013.62 1013.86 1014.12 1014.53 1014.91 1015.27 1015.70 1015.97 1015.82 1015.96 1016.38 1016.72 1017.04 1016.96 1016.69 1016.49 1016.50 1016.49 1016.46 1016.32 1016.11 1016.13 1016.27 1016.30 1016.28 1016.36 1016.50 1016.55 1016.46 1016.43 1016.51 1016.61 1016.71 1016.87 1016.96 1017.15 1017.25 1017.41 1017.60 1017.76 1017.98 1018.23
1012.85 1013.20 1013.53 1013.90 1014.27 1014.63 1014.82 1014.86 1015.44 1015.72 1015.73 1016.09 1016.15 1016.48 1017.02 1016.75 1016.67 1016.52 1016.51 1016.48 1016.33 1016.19 1016.06 1016.10 1016.13 1016.15 1016.21 1016.29 1016.32 1016.28 1016.24 1016.21 1016.23 1016.21 1016.17 1016.28 1016.44 1016.56 1016.68 1016.94 1017.26 1017.55 1017.81
1012.50 1012.84 1013.17 1013.38 1013.88 1014.21 1014.53 1014.71 1015.01 1015.38 1015.56 1015.69 1016.14 1016.17 1016.29 1016.39 1016.53 1016.62 1016.47 1016.42 1016.40 1016.23 1016.24 1016.16 1016.21 1016.14 1016.16 1016.20 1016.17 1016.07 1016.12 1015.90 1015.81 1015.85 1015.78 1015.51 1015.58 1015.91 1016.14 1016.38 1016.65 1016.99 1017.28
1012.29 1012.43 1012.66 1013.02 1013.41 1013.69 1013.94 1014.22 1014.60 1014.79 1015.27 1015.40 1015.55 1015.80 1016.15 1016.35 1016.45 1016.49 1016.42 1016.40 1016.47 1016.25 1016.19 1016.19 1016.10 1016.24 1016.14 1016.16 1016.12 1015.93 1015.68 1015.57 1015.43 1015.41 1015.37 1015.11 1015.03 1015.33 1015.70 1016.02 1016.37 1016.69 1016.98
1012.23 1012.28 1012.40 1012.65 1012.96 1013.20 1013.47 1013.64 1013.98 1014.41 1014.77 1015.17 1015.45 1015.57 1015.71 1015.89 1016.03 1016.16 1016.19 1016.10 1016.11 1015.96 1016.05 1016.06 1016.16 1016.08 1016.04 1016.00 1015.82 1015.80 1015.59 1015.36 1015.20 1015.05 1014.88 1014.80 1014.70 1014.93 1015.38 1015.85 1016.21 1016.60 1016.93
1012.04 1012.10 1012.24 1012.41 1012.60 1012.93 1013.25 1013.44 1013.73 1013.89 1014.46 1014.85 1015.16 1015.31 1015.42 1015.40 1015.43 1015.46 1015.51 1015.65 1015.68 1015.81 1015.97 1015.92 1015.93 1015.84 1015.94 1016.01 1015.87 1015.73 1015.69 1015.57 1015.43 1015.23 1014.97 1014.86 1014.86 1014.96 1015.33 1015.78 1016.29 1016.60 1016.98
1011.49 1011.62 1011.71 1011.85 1012.11 1012.43 1012.84 1013.11 1013.43 1013.73 1014.05 1014.36 1014.58 1014.82 1014.88 1014.96 1014.99 1015.09 1014.76 1015.15 1015.24 1015.54 1015.71 1015.71 1015.71 1015.77 1015.70 1015.77 1015.85 1015.80 1015.84 1015.78 1015.67 1015.57 1015.48 1015.44 1015.46 1015.56 1015.77 1016.09 1016.38 1016.68 1017.13
1010.97 1011.27 1011.45 1011.65 1011.79 1011.91 1012.17 1012.44 1012.78 1013.09 1013.34 1013.61 1013.87 1014.05 1014.21 1014.34 1014.46 1014.67 1014.64 1014.33 1014.73 1015.12 1014.51 1015.29 1015.64 1015.65 1015.62 1015.63 1015.89 1015.88 1016.08 1016.04 1015.98 1015.86 1015.80 1015.90 1015.92 1015.99 1016.04 1016.26 1016.48 1016.88 1017.36
1011.04 1011.31 1011.47 1011.64 1011.81 1011.98 1012.17 1012.21 1012.33 1012.50 1012.76 1012.95 1013.24 1013.52 1013.70 1013.75 1013.84 1014.06 1014.38 1014.47 1014.70 1014.87 1015.14 1015.23 1015.40 1015.69 1015.48 1015.70 1015.83 1016.04 1016.28 1016.29 1016.30 1016.25 1016.35 1016.33 1016.26 1016.42 1016.42 1016.46 1016.64 1017.00 1017.37
1011.29 1011.34 1011.51 1011.85 1012.20 1012.23 1012.17 1012.27 1012.22 1012.29 1012.29 1012.37 1012.63 1012.82 1012.98 1013.29 1013.48 1013.70 1013.89 1014.13 1014.30 1014.60 1014.98 1015.37 1015.37 1015.58 1015.63 1015.85 1015.96 1016.17 1016.41 1016.53 1016.57 1016.62 1016.69 1016.68 1016.68 1016.79 1016.93 1016.81 1016.97 1017.40 1017.86
1011.06 1011.28 1011.37 1011.59 1011.85 1012.02 1012.07 1012.15 1012.19 1012.19 1012.35 1012.33 1012.23 1012.29 1012.27 1012.62 1012.88 1013.13 1013.42 1013.51 1013.88 1014.05 1014.56 1014.96 1015.20 1015.32 1015.42 1015.61 1015.80 1016.20 1016.36 1016.70 1016.72 1016.87 1016.98 1016.93 1017.14 1017.21 1017.20 1017.32 1017.52 1017.93 1018.51
1010.33 1010.50 1010.60 1010.83 1011.09 1011.33 1011.58 1011.63 1011.65 1011.76 1011.95 1011.98 1011.95 1012.02 1011.89 1012.08 1012.28 1012.60 1012.87 1013.17 1013.57 1013.76 1014.00 1014.46 1014.81 1015.00 1015.30 1015.55 1016.03 1016.23 1016.62 1016.89 1017.02 1017.16 1017.35 1017.32 1017.49 1017.48 1017.68 1017.82 1018.03 1018.35 1018.77
1009.77 1009.84 1009.94 1010.23 1010.51 1010.66 1010.82 1010.98 1011.19 1011.37 1011.46 1011.44 1011.52 1011.75 1011.90 1011.91 1011.71 1011.90 1012.34 1012.54 1012.92 1013.40 1013.80 1014.14 1014.53 1014.80 1014.94 1015.31 1015.60 1016.09 1016.67 1017.30 1017.39 1017.37 1017.60 1017.77 1017.92 1017.88 1018.06 1018.27 1018.60 1018.70 1019.00
1008.52 1008.83 1008.91 1008.97 1009.07 1009.40 1010.08 1010.45 1010.71 1010.90 1011.28 1011.35 1011.25 1011.28 1011.31 1011.65 1011.70 1011.64 1012.02 1012.44 1012.67 1012.87 1013.32 1013.83 1014.21 1014.50 1014.68 1015.02 1015.33 1015.89 1016.37 1016.95 1017.50 1017.38 1017.64 1018.08 1018.09 1018.16 1018.38 1018.52 1018.86 1018.98 1019.28
1005.54 1006.55 1007.55 1007.58 1007.78 1008.60 1008.63 1009.06 1009.81 1010.21 1010.33 1010.86 1011.19 1011.29 1011.17 1011.22 1011.74 1011.80 1011.73 1011.87 1012.33 1012.60 1012.82 1013.14 1013.57 1013.94 1014.21 1014.60 1015.08 1015.58 1016.24 1016.71 1017.18 1017.24 1017.53 1017.87 1017.91 1018.28 1018.49 1018.61 1018.90 1019.07 1019.27
1006.18 1005.98 1006.29 1007.20 1007.95 1008.15 1008.58 1009.19 1009.61 1010.08 1010.26 1010.39 1010.59 1010.94 1011.25 1011.12 1011.44 1011.75 1011.71 1011.78 1012.11 1012.48 1012.81 1013.03 1013.23 1013.37 1013.68 1014.00 1014.63 1015.25 1015.67 1016.14 1016.59 1016.90 1017.40 1017.60 1017.98 1018.16 1018.32 1018.48 1018.95 1019.09 1019.21
1005.54 1005.66 1006.45 1006.67 1007.29 1007.92 1008.26 1008.67 1009.01 1009.53 1009.99 1010.09 1010.41 1010.51 1010.82 1011.06 1011.01 1011.53 1011.73 1011.59 1011.97 1012.21 1012.63 1012.88 1012.99 1013.12 1013.48 1013.66 1013.89 1014.40 1015.01 1015.71 1016.40 1016.81 1016.98 1017.31 1017.63 1017.71 1017.87 1018.20 1018.50 1018.78 1019.00
1005.56 1005.42 1005.68 1006.61 1007.16 1007.34 1007.68 1007.77 1008.64 1009.29 1009.56 1009.99 1009.96 1010.30 1010.52 1010.78 1010.92 1011.30 1011.62 1011.62 1011.59 1011.97 1012.18 1012.60 1012.90 1012.98 1013.26 1013.62 1013.94 1014.39 1014.95 1015.51 1016.00 1016.44 1016.86 1017.04 1017.35 1017.52 1017.66 1017.58 1017.69 1018.11 1018.45
1006.10 1006.12 1006.00 1006.85 1006.93 1007.34 1007.68 1007.47 1007.66 1008.57 1008.88 1009.53 1009.95 1010.07 1010.22 1010.44 1010.70 1011.25 1011.48 1011.64 1011.73 1011.92 1012.24 1012.54 1013.08 1013.43 1013.35 1013.59 1013.96 1013.90 1014.42 1014.94 1015.39 1015.97 1016.15 1016.57 1016.72 1016.78 1016.81 1016.88 1017.03 1017.25 1017.56
Wind_Speed
4 3 3 3 3 3 3 3 3 3 4 5 5 5 5 6 6 3 3 9 15 16 16 16 17 17 16 15 15 15 16 16 15 15 14 13 12 12 12 12 11 10 10
4 3 3 4 4 4 4 4 4 4 4 4 5 5 6 6 6 5 4 5 14 16 16 17 17 17 18 17 17 17 17 17 15 14 14 14 13 13 13 13 13 12 11
5 4 3 3 4 4 4 3 3 3 4 3 6 5 5 7 6 6 4 4 7 16 16 16 16 16 18 19 18 18 17 16 16 16 16 17 15 15 14 14 14 14 13
7 5 4 4 3 3 4 3 3 3 4 4 4 5 4 4 5 5 3 6 6 7 10 18 16 17 17 18 19 19 18 18 17 17 17 16 15 14 15 15 15 14 13
7 7 5 5 5 4 5 5 4 4 4 4 5 4 4 4 4 4 5 7 7 8 7 9 14 17 18 19 18 17 18 18 17 18 18 17 17 16 16 16 15 15 14
7 6 5 5 5 4 4 4 6 4 3 4 4 4 3 4 3 4 4 4 5 7 7 7 6 7 15 18 17 16 16 17 17 17 17 17 18 18 17 16 15 14 14
5 6 4 5 5 5 4 4 3 6 5 3 2 2 3 4 5 4 3 4 5 5 5 5 4 4 5 10 8 15 15 17 17 16 16 15 16 17 16 15 15 15 15
6 5 6 5 6 4 4 4 5 3 3 5 3 1 2 2 2 2 2 3 5 3 6 6 5 5 4 3 5 10 11 13 15 16 14 15 15 16 16 16 14 13 13
5 6 6 5 5 5 6 7 5 5 4 4 4 4 2 4 1 0 1 2 4 3 3 2 3 3 4 4 6 7 11 10 11 14 16 17 19 15 15 14 12 11 10
5 5 5 5 6 6 7 6 7 5 3 4 2 4 1 2 3 2 1 2 2 3 3 1 2 3 3 3 5 4 7 8 10 14 15 16 13 13 13 13 12 10 9
3 5 4 5 6 5 7 8 6 5 3 2 2 2 3 2 1 2 2 2 2 4 3 3 2 3 4 2 2 3 5 7 8 11 14 13 12 12 12 11 10 8 7
2 3 4 4 5 5 6 5 4 5 5 2 2 2 3 3 4 3 3 3 4 3 4 3 3 2 3 2 2 4 4 4 4 5 7 10 10 10 11 11 11 11 10
3 4 4 3 3 4 5 5 6 6 5 3 4 4 3 4 2 2 3 3 5 3 2 3 2 3 3 2 2 2 4 3 4 5 5 5 5 8 8 9 10 11 11
4 5 5 5 5 6 6 5 4 5 7 6 7 5 3 4 4 6 5 5 3 4 2 3 2 3 3 2 2 4 2 4 5 6 7 7 7 9 9 8 8 8 11
4 5 5 5 5 6 6 5 4 5 5 5 6 6 5 4 4 4 3 3 3 2 3 3 3 4 3 3 2 3 2 5 6 7 8 7 8 7 8 7 5 7 9
3 3 4 5 4 4 4 5 4 4 5 4 4 5 5 4 4 4 4 3 2 2 2 2 3 2 3 2 3 4 4 5 7 8 7 7 7 5 6 7 8 10 15
2 3 3 3 3 4 4 4 4 5 7 6 5 5 5 4 3 3 4 5 5 4 4 0 1 3 3 5 3 3 3 3 4 7 7 7 7 6 6 8 10 11 13
3 4 4 4 4 5 5 6 6 6 7 7 7 6 7 3 5 4 3 4 4 4 4 5 3 4 4 3 3 4 3 3 3 5 6 8 7 6 8 10 12 13 11
5 5 6 6 7 7 7 7 7 6 7 6 5 6 8 6 5 3 4 4 3 3 4 4 3 2 2 3 3 3 3 3 2 7 6 7 6 8 8 9 11 12 11
5 5 5 6 6 6 8 8 7 6 7 6 5 6 6 7 6 5 4 5 5 4 4 3 3 2 2 3 4 4 3 1 2 3 5 5 4 6 7 8 9 10 10
7 7 7 8 10 9 7 8 7 7 6 6 5 5 5 5 6 6 3 4 4 4 3 3 2 2 2 2 5 3 3 3 1 2 2 1 2 1 2 5 6 9 7
15 12 11 11 10 6 13 15 10 7 7 6 6 6 5 7 6 6 8 8 6 7 5 4 3 4 5 4 3 6 3 3 3 4 4 4 3 3 3 3 5 7 7
7 11 12 9 9 9 8 9 11 6 6 7 6 5 5 5 7 5 3 7 7 7 2 4 4 4 5 6 7 6 4 3 3 4 3 2 3 4 4 4 8 8 8
10 10 7 9 8 6 10 12 12 7 6 6 6 7 7 7 7 6 5 6 5 5 2 2 3 3 4 5 7 6 6 5 3 3 3 3 3 4 4 5 10 11 9
10 9 3 5 8 7 14 16 12 6 6 6 6 6 7 8 7 8 6 7 6 4 4 4 2 3 6 7 6 6 5 5 2 2 4 1 3 2 3 5 7 14 13
7 4 2 3 5 5 9 15 14 7 7 5 5 5 9 8 11 9 6 6 5 4 6 5 4 5 5 5 7 6 7 6 3 2 5 6 4 4 3 3 3 5 7
Wind_Direction
191 179 194 190 193 183 187 187 194 199 206 226 233 229 234 236 248 239 237 240 210 215 218 214 218 220 222 225 223 228 222 224 224 221 225 227 227 229 229 231 235 226 234
192 195 197 201 198 191 189 192 196 203 214 211 239 241 247 251 256 251 239 253 224 219 222 223 216 219 223 224 225 225 228 227 227 228 229 231 229 228 228 232 233 234 233
196 196 206 203 205 195 190 199 213 211 229 226 241 243 246 259 255 252 236 242 232 227 227 230 230 227 224 226 226 225 227 231 229 227 228 231 229 225 226 229 237 238 233
189 197 200 212 201 188 192 194 189 219 235 222 237 239 241 247 262 266 247 246 233 232 239 235 231 234 235 231 231 229 227 229 231 230 232 231 232 232 227 228 234 238 240
199 198 199 201 189 195 201 205 201 194 221 232 239 246 230 238 242 264 252 236 238 237 237 244 241 238 238 236 237 236 232 231 231 232 231 231 232 231 231 231 231 234 236
200 198 204 194 173 191 218 200 204 198 204 215 236 251 251 247 240 242 253 246 243 236 235 238 246 253 253 245 241 239 240 239 239 235 234 234 235 235 231 233 233 234 236
223 199 203 190 180 198 199 215 206 199 211 199 128 268 281 262 245 240 246 256 260 259 261 254 250 253 264 268 259 230 236 240 236 236 237 240 236 238 232 229 232 234 240
206 209 204 200 192 179 180 210 222 202 196 174 157 97 306 302 269 249 245 247 251 247 250 247 258 268 271 276 259 263 259 255 247 238 242 240 240 239 235 227 232 234 238
206 198 203 203 194 191 196 185 219 230 200 199 199 149 150 230 335 305 237 242 231 241 254 276 304 309 289 267 270 272 282 280 275 258 245 247 239 233 229 226 223 227 233
207 207 216 196 206 201 210 197 187 194 215 183 181 228 207 155 187 294 266 290 280 247 253 282 306 313 313 299 280 283 285 275 272 269 262 245 236 220 220 215 214 214 223
193 186 196 216 216 210 210 188 187 171 206 167 178 159 195 209 182 164 245 250 257 237 238 243 270 298 296 301 316 299 295 280 264 261 258 251 230 226 208 200 200 190 173
187 187 210 214 218 209 189 188 191 176 183 223 222 206 183 183 196 193 218 223 223 223 229 242 254 265 281 294 327 338 9 353 321 286 252 244 223 191 195 191 169 159 154
193 202 201 194 212 194 191 173 176 180 178 182 214 231 232 238 201 207 206 206 226 196 226 237 224 234 248 252 290 43 27 31 36 38 59 75 129 147 149 148 152 159 164
191 185 189 182 186 183 190 179 173 178 190 206 212 210 224 228 224 229 221 201 222 198 191 242 218 229 222 197 217 93 40 64 66 59 58 73 91 109 119 133 148 159 158
198 200 195 190 185 175 176 168 175 182 186 197 213 213 215 216 206 221 234 183 195 176 180 202 218 207 197 178 168 109 100 87 78 74 76 82 90 104 116 124 135 150 144
201 202 201 205 201 195 189 181 179 189 193 206 211 222 225 228 203 200 208 228 217 192 241 173 190 214 171 142 147 113 104 92 80 72 68 78 89 104 133 137 133 135 131
216 241 211 207 230 228 215 215 223 219 213 209 210 207 227 214 218 205 208 219 216 190 229 64 193 207 182 167 130 112 97 86 80 83 81 80 87 98 109 110 116 122 123
192 211 199 202 221 235 223 229 234 228 228 228 228 213 228 212 241 222 201 198 184 177 166 214 178 191 196 172 141 125 119 102 104 91 90 86 77 80 96 102 109 109 113
187 177 184 196 204 214 216 223 222 221 221 226 231 225 225 200 218 205 201 182 195 199 187 181 183 147 160 140 115 88 84 64 74 97 82 87 92 94 98 107 112 114 121
181 195 190 213 218 215 209 214 223 229 233 223 220 225 236 220 203 194 197 179 164 177 181 180 175 169 154 145 144 143 118 89 115 95 85 79 91 100 110 116 128 139 142
163 203 212 211 204 196 207 221 206 211 224 236 225 233 216 228 222 192 178 183 170 176 165 161 143 158 170 155 167 148 128 146 165 120 118 122 109 95 128 136 161 156 146
181 178 206 215 207 209 203 198 196 204 189 206 214 224 207 188 211 200 198 186 188 193 171 159 153 176 181 153 134 156 130 149 191 184 168 190 165 196 196 193 192 168 160
202 199 206 187 203 212 205 207 202 198 194 204 200 204 202 189 191 204 190 188 164 172 134 182 185 182 181 174 154 159 158 148 180 151 151 193 182 215 207 220 214 201 185
217 208 208 192 195 203 192 207 194 185 197 200 209 204 205 197 191 184 163 150 149 159 173 192 201 204 203 161 167 173 165 137 99 131 155 163 168 218 203 214 206 209 197
225 221 202 183 188 205 196 185 174 173 177 210 198 219 208 194 181 177 165 161 150 146 97 172 217 162 164 161 145 129 146 150 145 168 191 111 164 202 198 217 210 204 205
262 291 280 182 199 230 214 191 174 178 178 184 200 215 199 187 165 178 176 165 166 159 156 136 120 96 140 167 175 187 160 169 136 168 181 183 168 180 209 193 202 201 202